Location: Adamstown South Public School
(32.9318°S, 151.7012°E)
Time: 17:17:39
(UTC+00:00)

Longmarch 3A Rocket - Pass Details

Date: 07 June 2020
Orbit: 236 x 22591 km, 27.2° (Epoch: 04 July)

Event Time Altitude Azimuth Distance (km) Brightness Sun altitude
Rises 08:22:20 0° 279° (W) 11,542 10.2 -18.2°
Reaches altitude 10° 08:35:31 10° 280° (W) 6,930 8.6 -20.9°
Maximum altitude 08:49:39 51° 351° (N) 1,168 3.5 -23.8°
Enters shadow 08:50:54 40° 38° (NE) 1,118 3.1 -24.0°
